DW4212 La Cabrera ES current weather conditions

sailwx.info

Wind from 355

Air temperature 13.3° C
Dewpoint 4.0° C

Last reported at 2015-Apr-19 13:39 UTC.
Time now 2015-Apr-19 14:13 UTC

Location: N 40°53' W 003°35'.
View on Google Maps.

See reports from other nearby stations

  
Tides and Currents Weather Stations Pressure Air Temp Water Temp Dewpoint Dewpoint Depression Visibility Wind Speed Wind Dir Waves Ship Positions
date/time (UTC)wind fromknots sea level pressurealtimeterstation pressurevisibilityair tempwater tempwave heightnotes
2015-Apr-19 13:39 355 13.3
2015-Apr-19 13:29 355 0 gusting 3 13.3
2015-Apr-19 13:19 332 0 gusting 6 12.8
2015-Apr-19 13:09 063 12.2
2015-Apr-19 12:59 055 0 gusting 6 12.2
2015-Apr-19 12:49 071 1 gusting 6 12.2
2015-Apr-19 12:39 219 13.3
2015-Apr-19 12:29 005 2 gusting 4 12.8
2015-Apr-19 12:19 034 0 gusting 3 11.7
2015-Apr-19 12:09 053 0 gusting 4 11.1
2015-Apr-19 11:59 042 11.7
2015-Apr-19 11:49 061 11.7
2015-Apr-19 11:39 061 0 gusting 4 11.1
2015-Apr-19 11:29 153 11.7
2015-Apr-19 11:19 138 11.1
2015-Apr-19 11:09 038 0 gusting 7 10.6
2015-Apr-19 10:59 134 0 gusting 4 11.1
2015-Apr-19 10:49 005 11.1
2015-Apr-19 10:39 005 11.7
2015-Apr-19 10:29 360 0 gusting 4 11.7
2015-Apr-19 10:19 333 1 gusting 6 11.1
2015-Apr-19 10:09 346 0 gusting 7 11.1
2015-Apr-19 09:59 355 0 gusting 5 11.1
2015-Apr-19 09:49 005 1 gusting 6 11.1
2015-Apr-19 09:39 005 1 gusting 6 11.1
2015-Apr-19 09:29 005 2 gusting 6 10.6
2015-Apr-19 09:19 360 4 gusting 6 10.0
2015-Apr-19 09:09 005 3 gusting 6 10.6
2015-Apr-19 08:59 005 0 gusting 6 11.7
2015-Apr-19 08:49 355 1 gusting 6 11.7
2015-Apr-19 08:39 360 1 gusting 6 10.6
2015-Apr-19 08:30 360 1 gusting 6 10.6
2015-Apr-19 08:19 329 0 gusting 6 10.6
2015-Apr-19 08:09 346 2 gusting 4 10.6
2015-Apr-19 07:59 304 0 gusting 4 10.0
2015-Apr-19 07:49 344 0 gusting 5 10.0
2015-Apr-19 07:39 360 0 gusting 4 9.4
2015-Apr-19 07:29 061 0 gusting 3 8.3
2015-Apr-19 07:19 015 0 gusting 5 8.9
2015-Apr-19 07:09 178 8.9
2015-Apr-19 06:59 177 8.3
2015-Apr-19 06:49 177 7.8
2015-Apr-19 06:39 177 7.8
2015-Apr-19 06:29 177 7.2
2015-Apr-19 06:19 177 6.1
2015-Apr-19 06:09 177 5.0
2015-Apr-19 05:59 177 4.4
2015-Apr-19 05:49 177 0 gusting 1 3.9
2015-Apr-19 05:39 177 3.9
2015-Apr-19 05:29 176 3.9
2015-Apr-19 05:19 176 3.9
2015-Apr-19 05:09 176 3.9
2015-Apr-19 04:59 176 3.9
2015-Apr-19 04:49 176 3.9
2015-Apr-19 04:39 176 3.9
2015-Apr-19 04:29 176 3.9
2015-Apr-19 04:19 176 3.9
2015-Apr-19 04:09 176 4.4
2015-Apr-19 03:59 176 4.4
2015-Apr-19 03:49 176 4.4
2015-Apr-19 03:39 176 4.4
2015-Apr-19 03:29 176 5.0
2015-Apr-19 03:19 176 5.0
2015-Apr-19 03:09 176 5.6
2015-Apr-19 02:59 176 2 gusting 4 5.6
2015-Apr-19 02:49 325 0 gusting 6 5.6
2015-Apr-19 02:39 009 1 gusting 5 5.6
2015-Apr-19 02:29 013 0 gusting 5 5.6
2015-Apr-19 02:19 340 0 gusting 3 5.6
2015-Apr-19 02:09 333 0 gusting 5 5.6
2015-Apr-19 01:59 005 0 gusting 3 5.6
2015-Apr-19 01:49 005 5.6
2015-Apr-19 01:39 005 5.6
2015-Apr-19 01:29 005 0 gusting 5 6.1
2015-Apr-19 01:19 266 5.6
2015-Apr-19 01:09 262 0 gusting 3 5.6
2015-Apr-19 00:59 262 6.1
2015-Apr-19 00:49 262 6.1
2015-Apr-19 00:39 262 6.1
2015-Apr-19 00:29 262 0 gusting 4 6.1
2015-Apr-19 00:19 256 6.1
2015-Apr-19 00:09 250 6.1
2015-Apr-18 23:59 111 6.1
2015-Apr-18 23:49 039 1 gusting 8 6.7
2015-Apr-18 23:39 347 2 gusting 8 6.7
2015-Apr-18 23:29 267 2 gusting 11 6.1
2015-Apr-18 23:19 331 3 gusting 6 6.1
2015-Apr-18 23:09 300 1 gusting 5 6.1
2015-Apr-18 22:59 259 0 gusting 6 6.1
2015-Apr-18 22:49 314 0 gusting 3 6.1
2015-Apr-18 22:39 014 1 gusting 6 6.1
2015-Apr-18 22:29 326 0 gusting 5 6.1
2015-Apr-18 22:19 331 0 gusting 3 6.1
2015-Apr-18 22:09 355 1 gusting 6 6.1
2015-Apr-18 21:59 355 2 gusting 7 6.1
2015-Apr-18 21:49 023 2 gusting 9 6.1
2015-Apr-18 21:39 016 3 gusting 7 6.1
2015-Apr-18 21:29 355 4 gusting 8 6.1
2015-Apr-18 21:19 005 3 gusting 6 6.1
2015-Apr-18 21:09 019 5 gusting 8 6.1
2015-Apr-18 20:59 053 3 gusting 7 6.1
2015-Apr-18 20:49 011 2 gusting 7 6.1
2015-Apr-18 20:39 065 5 gusting 11 6.1
2015-Apr-18 20:29 062 4 gusting 11 6.1
2015-Apr-18 20:19 041 0 gusting 5 6.1
2015-Apr-18 20:09 360 0 gusting 6 6.1
2015-Apr-18 19:59 009 0 gusting 5 6.1
2015-Apr-18 19:49 005 0 gusting 5 6.1
2015-Apr-18 19:39 274 6.7
2015-Apr-18 19:29 265 6.7
2015-Apr-18 19:19 265 6.7
2015-Apr-18 19:09 308 2 gusting 9 6.7
2015-Apr-18 18:59 005 5 gusting 13 7.8
2015-Apr-18 18:49 306 4 gusting 11 9.4
2015-Apr-18 18:39 342 3 gusting 8 11.7
2015-Apr-18 18:29 294 11.7
2015-Apr-18 18:19 294 12.2
2015-Apr-18 18:09 294 12.2
2015-Apr-18 17:59 294 12.2
2015-Apr-18 17:49 292 0 gusting 5 12.8
2015-Apr-18 17:39 307 1 gusting 4 13.3
2015-Apr-18 17:29 267 0 gusting 5 13.3
2015-Apr-18 17:19 269 2 gusting 7 13.3
2015-Apr-18 17:09 238 1 gusting 5 12.2
2015-Apr-18 16:59 333 2 gusting 6 11.7
2015-Apr-18 16:49 345 0 gusting 10 11.7
2015-Apr-18 16:39 301 2 gusting 9 12.8
2015-Apr-18 16:29 337 4 gusting 11 15.0
2015-Apr-18 16:19 262 6 gusting 11 16.1
2015-Apr-18 15:59 200 3 gusting 8 16.1
2015-Apr-18 15:49 200 3 gusting 10 16.1
2015-Apr-18 15:39 242 2 gusting 9 15.6
2015-Apr-18 15:29 240 1 gusting 8 15.6
2015-Apr-18 15:19 169 3 gusting 9 16.1
2015-Apr-18 15:09 156 1 gusting 8 16.1
2015-Apr-18 14:59 205 3 gusting 12 16.1
2015-Apr-18 14:49 201 2 gusting 10 16.7
2015-Apr-18 14:39 192 1 gusting 13 16.7
2015-Apr-18 14:29 267 3 gusting 10 16.7
2015-Apr-18 14:19 190 2 gusting 9 16.7
2015-Apr-18 14:09 179 1 gusting 9 16.1
2015-Apr-18 13:59 201 3 gusting 11 16.1
2015-Apr-18 13:49 252 3 gusting 9 16.1
2015-Apr-18 13:39 200 4 gusting 15 16.1
2015-Apr-18 13:29 210 1 gusting 9 16.1
2015-Apr-18 13:19 181 3 gusting 10 15.6
2015-Apr-18 13:09 183 1 gusting 8 16.1
2015-Apr-18 12:59 198 4 gusting 12 15.6
2015-Apr-18 12:49 203 2 gusting 11 15.6
2015-Apr-18 12:39 202 3 gusting 9 15.6
2015-Apr-18 12:29 215 5 gusting 13 15.6
2015-Apr-18 12:19 217 3 gusting 11 15.0
2015-Apr-18 12:09 210 4 gusting 11 13.9
2015-Apr-18 11:59 274 4 gusting 13 13.9
2015-Apr-18 11:49 219 2 gusting 11 13.9
2015-Apr-18 11:39 200 4 gusting 13 13.9
2015-Apr-18 11:29 196 3 gusting 8 13.9
2015-Apr-18 11:19 234 4 gusting 11 13.9
2015-Apr-18 11:09 186 4 gusting 9 13.9
2015-Apr-18 10:59 190 3 gusting 10 13.9
2015-Apr-18 10:49 185 4 gusting 8 12.2
2015-Apr-18 10:39 177 2 gusting 10 12.2
2015-Apr-18 10:29 167 1 gusting 6 12.2
2015-Apr-18 10:19 185 2 gusting 4 12.2
2015-Apr-18 10:09 190 11.1
2015-Apr-18 09:59 176 11.1
2015-Apr-18 09:49 193 0 gusting 4 11.1
2015-Apr-18 09:39 195 0 gusting 3 11.1
2015-Apr-18 09:29 195 11.1
2015-Apr-18 09:19 195 1 gusting 4 10.6
2015-Apr-18 09:09 184 0 gusting 4 10.0
2015-Apr-18 08:49 192 0 gusting 3 9.4
2015-Apr-18 08:39 192 9.4
2015-Apr-18 08:29 192 0 gusting 3 10.0
2015-Apr-18 08:19 192 10.0
2015-Apr-18 08:09 192 10.0
2015-Apr-18 07:59 167 10.6
2015-Apr-18 07:49 179 1 gusting 4 11.1
2015-Apr-18 07:39 167 0 gusting 3 11.7
2015-Apr-18 07:29 192 11.7
2015-Apr-18 07:19 195 0 gusting 3 11.1
2015-Apr-18 07:09 195 10.0
2015-Apr-18 06:59 237 9.4
2015-Apr-18 06:49 237 9.4
2015-Apr-18 06:30 237 8.3
2015-Apr-18 06:19 237 7.8
2015-Apr-18 06:09 237 7.2
2015-Apr-18 05:59 237 0 gusting 1 7.2
2015-Apr-18 05:49 237 7.2
2015-Apr-18 05:39 237 7.2
2015-Apr-18 05:29 237 7.2
2015-Apr-18 05:19 237 7.2
2015-Apr-18 05:09 237 7.2
2015-Apr-18 04:59 237 7.2
2015-Apr-18 04:49 237 7.2
2015-Apr-18 04:39 237 7.2
2015-Apr-18 04:29 237 7.2
2015-Apr-18 04:19 237 7.2
2015-Apr-18 04:09 237 7.2
2015-Apr-18 03:59 237 7.2
2015-Apr-18 03:49 237 7.2
2015-Apr-18 03:39 237 7.2
2015-Apr-18 03:29 237 7.8
2015-Apr-18 03:19 237 7.8
2015-Apr-18 03:09 237 7.8
2015-Apr-18 02:59 237 7.8
2015-Apr-18 02:49 237 8.3
2015-Apr-18 02:39 237 8.3
2015-Apr-18 02:29 237 8.3
2015-Apr-18 02:19 237 8.3
2015-Apr-18 02:09 237 8.3
2015-Apr-18 01:59 237 8.3
2015-Apr-18 01:49 237 8.3
2015-Apr-18 01:39 237 8.3
2015-Apr-18 01:29 237 8.3
2015-Apr-18 01:19 237 8.3
2015-Apr-18 01:09 237 8.3
2015-Apr-18 00:59 237 8.3
2015-Apr-18 00:49 237 8.9
2015-Apr-18 00:39 237 8.9
2015-Apr-18 00:29 237 8.9
2015-Apr-18 00:19 237 9.4
2015-Apr-17 23:59 237 9.4
2015-Apr-17 23:49 237 9.4
2015-Apr-17 23:39 237 9.4
2015-Apr-17 23:29 237 9.4
2015-Apr-17 23:19 237 9.4
2015-Apr-17 23:09 237 9.4
2015-Apr-17 22:59 237 9.4
2015-Apr-17 22:49 237 9.4
2015-Apr-17 22:39 237 10.0
2015-Apr-17 22:19 237 10.0
2015-Apr-17 22:09 237 10.0
2015-Apr-17 21:59 237 0 gusting 2 10.0
2015-Apr-17 21:49 237 10.6
2015-Apr-17 21:39 237 10.6
2015-Apr-17 21:29 237 0 gusting 2 10.6
2015-Apr-17 21:19 237 0 gusting 3 10.6
2015-Apr-17 21:09 237 10.6
2015-Apr-17 20:59 237 10.6
2015-Apr-17 20:49 237 10.6
2015-Apr-17 20:39 237 11.1
2015-Apr-17 20:29 237 11.1
2015-Apr-17 20:19 237 11.1
2015-Apr-17 20:09 237 11.1
2015-Apr-17 19:59 237 11.1
2015-Apr-17 19:49 237 11.7
2015-Apr-17 19:39 236 11.7
2015-Apr-17 19:29 237 11.7
2015-Apr-17 19:19 239 12.2
2015-Apr-17 19:09 242 12.2
2015-Apr-17 18:59 205 12.8
2015-Apr-17 18:49 205 0 gusting 3 12.8
2015-Apr-17 18:39 201 13.3
2015-Apr-17 18:29 200 0 gusting 3 13.3
2015-Apr-17 18:19 232 0 gusting 3 13.9
2015-Apr-17 18:09 238 0 gusting 5 13.9
2015-Apr-17 17:59 196 0 gusting 4 13.9
2015-Apr-17 17:49 223 14.4
2015-Apr-17 17:39 236 0 gusting 4 14.4
2015-Apr-17 17:29 184 1 gusting 6 14.4
2015-Apr-17 17:19 216 1 14.4
2015-Apr-17 17:09 168 0 gusting 6 14.4
2015-Apr-17 16:59 179 0 gusting 6 14.4
2015-Apr-17 16:49 211 2 gusting 6 14.4
2015-Apr-17 16:39 184 3 gusting 6 14.4
2015-Apr-17 16:29 200 2 gusting 7 15.0
2015-Apr-17 16:19 196 1 gusting 6 15.0
2015-Apr-17 16:09 186 0 gusting 7 15.0
2015-Apr-17 15:59 178 2 gusting 6 15.0
2015-Apr-17 15:49 175 2 gusting 9 15.0
2015-Apr-17 15:39 175 2 gusting 6 15.0
2015-Apr-17 15:29 180 1 gusting 8 15.0
2015-Apr-17 15:19 287 1 gusting 5 15.6
2015-Apr-17 15:09 193 1 gusting 6 15.6
2015-Apr-17 14:59 196 1 gusting 6 15.0
2015-Apr-17 14:49 217 2 gusting 6 15.0